Total_Precipitation_Accumulation
0.17 0.19 0.17 0.16 0.20 0.20 0.24 0.30 0.42 0.50 0.40 0.25 0.16 0.12 0.11 0.08 0.04 0.01 0.00 0.00 0.00 0.00 0.00 0.02 0.02 0.04 0.06 0.07 0.04 0.04 0.03 0.02 0.00 0.00 0.00 0.00 0.00 0.00
0.17 0.16 0.16 0.18 0.16 0.13 0.13 0.15 0.19 0.20 0.17 0.15 0.17 0.17 0.19 0.16 0.14 0.11 0.08 0.07 0.03 0.01 0.00 0.00 0.00 0.00 0.01 0.01 0.01 0.00 0.01 0.01 0.01 0.01 0.00 0.00 0.00 0.00
0.16 0.16 0.13 0.13 0.16 0.19 0.18 0.16 0.15 0.12 0.10 0.07 0.05 0.05 0.04 0.04 0.06 0.07 0.07 0.06 0.03 0.02 0.02 0.01 0.00 0.00 0.00 0.00 0.00 0.00 0.00 0.00 0.01 0.01 0.02 0.02 0.01 0.00
0.13 0.15 0.12 0.11 0.14 0.11 0.12 0.17 0.16 0.12 0.11 0.07 0.05 0.04 0.01 0.00 0.00 0.00 0.00 0.00 0.00 0.00 0.00 0.00 0.00 0.00 0.00 0.00 0.00 0.00 0.00 0.00 0.00 0.00 0.01 0.01 0.01 0.01
0.18 0.15 0.09 0.12 0.10 0.10 0.06 0.05 0.06 0.11 0.16 0.16 0.10 0.09 0.08 0.03 0.00 0.00 0.00 0.00 0.00 0.00 0.00 0.00 0.00 0.00 0.00 0.00 0.00 0.00 0.00 0.00 0.00 0.00 0.00 0.00 0.00 0.00
0.12 0.18 0.17 0.11 0.07 0.07 0.09 0.06 0.05 0.06 0.06 0.09 0.11 0.10 0.07 0.04 0.02 0.01 0.00 0.00 0.00 0.00 0.00 0.00 0.00 0.00 0.00 0.00 0.00 0.00 0.00 0.00 0.00 0.00 0.00 0.00 0.00 0.00
0.12 0.10 0.16 0.19 0.12 0.10 0.09 0.09 0.08 0.10 0.10 0.09 0.07 0.06 0.06 0.05 0.03 0.01 0.01 0.00 0.00 0.00 0.00 0.00 0.00 0.00 0.00 0.00 0.00 0.00 0.00 0.00 0.00 0.00 0.00 0.00 0.00 0.00
0.13 0.11 0.11 0.17 0.13 0.10 0.10 0.11 0.12 0.10 0.12 0.11 0.09 0.07 0.05 0.02 0.03 0.05 0.05 0.05 0.02 0.00 0.00 0.00 0.00 0.00 0.00 0.00 0.00 0.00 0.00 0.00 0.00 0.00 0.00 0.00 0.00 0.00
0.09 0.10 0.14 0.10 0.14 0.10 0.12 0.15 0.19 0.19 0.16 0.13 0.11 0.08 0.06 0.06 0.07 0.09 0.08 0.04 0.02 0.01 0.02 0.04 0.02 0.02 0.01 0.01 0.03 0.02 0.02 0.01 0.01 0.01 0.01 0.01 0.01 0.01
0.13 0.09 0.09 0.14 0.13 0.16 0.19 0.26 0.25 0.22 0.18 0.19 0.14 0.10 0.11 0.13 0.15 0.18 0.17 0.18 0.18 0.08 0.04 0.05 0.02 0.02 0.02 0.01 0.04 0.04 0.02 0.01 0.01 0.01 0.01 0.01 0.01 0.02
0.12 0.17 0.11 0.08 0.18 0.24 0.26 0.32 0.34 0.27 0.25 0.28 0.28 0.27 0.30 0.34 0.36 0.31 0.30 0.21 0.20 0.12 0.08 0.10 0.08 0.08 0.09 0.07 0.06 0.12 0.08 0.05 0.04 0.03 0.03 0.03 0.04 0.05
0.46 0.19 0.31 0.14 0.15 0.19 0.25 0.27 0.31 0.24 0.16 0.23 0.29 0.27 0.27 0.31 0.37 0.26 0.23 0.27 0.27 0.22 0.12 0.13 0.13 0.13 0.15 0.07 0.04 0.05 0.06 0.06 0.05 0.04 0.04 0.05 0.07 0.06
0.98 0.50 0.30 0.38 0.19 0.16 0.19 0.17 0.20 0.24 0.34 0.33 0.34 0.31 0.26 0.23 0.24 0.21 0.18 0.20 0.23 0.17 0.14 0.22 0.17 0.12 0.14 0.08 0.03 0.05 0.06 0.07 0.09 0.08 0.08 0.10 0.12 0.11
0.66 0.86 0.56 0.45 0.35 0.25 0.18 0.16 0.21 0.24 0.23 0.25 0.28 0.29 0.26 0.21 0.15 0.18 0.22 0.26 0.22 0.19 0.22 0.25 0.17 0.11 0.12 0.09 0.05 0.04 0.07 0.08 0.10 0.11 0.12 0.17 0.18 0.17
0.59 0.67 0.79 0.73 0.45 0.38 0.31 0.23 0.14 0.11 0.14 0.17 0.16 0.14 0.16 0.19 0.22 0.24 0.24 0.23 0.22 0.23 0.21 0.12 0.11 0.11 0.12 0.12 0.08 0.06 0.11 0.08 0.10 0.11 0.12 0.11 0.08 0.05
0.50 0.56 0.58 0.64 0.69 0.54 0.57 0.49 0.25 0.12 0.09 0.06 0.08 0.10 0.12 0.14 0.15 0.16 0.19 0.18 0.20 0.27 0.26 0.23 0.21 0.17 0.17 0.16 0.15 0.11 0.10 0.09 0.05 0.06 0.06 0.04 0.05 0.06
0.31 0.36 0.50 0.49 0.63 0.62 0.52 0.50 0.51 0.43 0.29 0.14 0.11 0.13 0.13 0.09 0.12 0.17 0.21 0.23 0.24 0.25 0.29 0.28 0.24 0.19 0.16 0.15 0.13 0.10 0.08 0.05 0.01 0.00 0.01 0.01 0.01 0.01
0.23 0.24 0.41 0.58 0.62 0.75 0.58 0.56 0.56 0.58 0.47 0.36 0.27 0.21 0.20 0.18 0.17 0.19 0.20 0.21 0.23 0.24 0.22 0.21 0.19 0.16 0.12 0.09 0.06 0.04 0.03 0.01 0.01 0.00 0.00 0.00 0.00 0.00
0.21 0.23 0.30 0.45 0.58 0.67 0.66 0.57 0.54 0.47 0.52 0.54 0.42 0.33 0.29 0.30 0.40 0.29 0.28 0.27 0.25 0.23 0.23 0.19 0.15 0.11 0.09 0.06 0.02 0.02 0.01 0.01 0.00 0.00 0.00 0.00 0.00 0.00
0.28 0.17 0.16 0.21 0.31 0.37 0.43 0.38 0.33 0.34 0.34 0.33 0.29 0.26 0.27 0.27 0.26 0.27 0.25 0.21 0.20 0.20 0.19 0.17 0.13 0.10 0.08 0.07 0.04 0.03 0.02 0.02 0.01 0.00 0.00 0.00 0.00 0.00
0.22 0.28 0.16 0.12 0.13 0.13 0.15 0.13 0.11 0.12 0.14 0.15 0.15 0.15 0.16 0.16 0.19 0.19 0.20 0.22 0.19 0.16 0.17 0.16 0.13 0.11 0.07 0.05 0.03 0.03 0.01 0.00 0.00 0.00 0.00 0.01 0.00 0.00
0.17 0.19 0.23 0.15 0.08 0.05 0.05 0.05 0.06 0.05 0.05 0.06 0.08 0.10 0.12 0.13 0.13 0.15 0.14 0.14 0.15 0.15 0.13 0.12 0.12 0.08 0.04 0.03 0.02 0.01 0.00 0.00 0.00 0.00 0.00 0.00 0.01 0.02
0.16 0.11 0.13 0.12 0.09 0.07 0.06 0.07 0.07 0.06 0.05 0.05 0.06 0.07 0.07 0.07 0.08 0.08 0.08 0.09 0.08 0.07 0.07 0.08 0.07 0.04 0.02 0.01 0.01 0.00 0.00 0.00 0.00 0.00 0.00 0.00 0.00 0.00